When you browse on this site, cookies collect data to enhance your experience and personalize the content and advertising you see.
Visit our Privacy Policy to learn more. By continuing to use the site, you agree to this use of cookies and data.
  • In Denmark
  • List of Countries
  • For 7 days
  • Water Temperature
  • Satellite Maps
  • Weather Map
  • Weather Widgets
  • user-avatar
    Login

    Hourly Weather Reykjavík

    Today, 26 March, Tuesday

    Time Temperature Precipitation Wind Pressure Humidity
    00:00 +2°C° 0.2 mm 9 mps 751 mmHg 91%
    01:00 +2°C° 0.2 mm 10 mps 752 mmHg 90%
    02:00 +2°C° 0.2 mm 10 mps 752 mmHg 90%
    03:00 +2°C° 0.2 mm 10 mps 753 mmHg 88%
    04:00 +2°C° 0.2 mm 10 mps 754 mmHg 86%
    05:00 +1°C° 0 mm 8 mps 755 mmHg 86%
    06:00 +1°C° 0.1 mm 8 mps 755 mmHg 83%
    07:00 +1°C° 0.1 mm 9 mps 755 mmHg 81%
    08:00 +1°C° 0.1 mm 9 mps 756 mmHg 78%
    09:00 +1°C° 0.1 mm 9 mps 756 mmHg 76%
    10:00 +1°C° 0.1 mm 9 mps 757 mmHg 75%
    11:00 +1°C° 0.1 mm 9 mps 757 mmHg 73%
    12:00 +1°C° 0.1 mm 9 mps 758 mmHg 72%
    13:00 +1°C° 0.1 mm 9 mps 758 mmHg 72%
    14:00 +1°C° 0.1 mm 9 mps 758 mmHg 71%
    15:00 +1°C° 0 mm 8 mps 758 mmHg 71%
    16:00 0°C° 0 mm 8 mps 758 mmHg 71%
    17:00 0°C° 0 mm 7 mps 758 mmHg 70%
    18:00 0°C° 0.1 mm 7 mps 758 mmHg 73%
    19:00 0°C° 0.1 mm 7 mps 758 mmHg 76%
    20:00 -1°C° 0.1 mm 7 mps 758 mmHg 78%
    21:00 0°C° 0.1 mm 7 mps 757 mmHg 78%
    22:00 0°C° 0.1 mm 8 mps 756 mmHg 78%
    23:00 0°C° 0.1 mm 8 mps 755 mmHg 79%

    Tomorrow, 27 March, Wednesday

    Time Temperature Precipitation Wind Pressure Humidity
    00:00 +1°C° 0.5 mm 10 mps 754 mmHg 81%
    01:00 +1°C° 0.5 mm 11 mps 752 mmHg 83%
    02:00 +1°C° 0.5 mm 13 mps 751 mmHg 86%
    03:00 +1°C° 0.6 mm 13 mps 750 mmHg 84%
    04:00 +1°C° 0.6 mm 13 mps 749 mmHg 81%
    05:00 +1°C° 0.6 mm 14 mps 748 mmHg 79%
    06:00 +1°C° 1.3 mm 13 mps 748 mmHg 78%
    07:00 0°C° 1.3 mm 13 mps 748 mmHg 77%
    08:00 0°C° 1.3 mm 13 mps 747 mmHg 76%
    09:00 -1°C° 0.3 mm 13 mps 748 mmHg 73%
    10:00 -1°C° 0.3 mm 14 mps 748 mmHg 71%
    11:00 -3°C° 0.3 mm 15 mps 748 mmHg 68%
    12:00 -3°C° 0.3 mm 15 mps 748 mmHg 68%
    13:00 -4°C° 0.3 mm 15 mps 749 mmHg 68%
    14:00 -5°C° 0.3 mm 14 mps 749 mmHg 68%
    15:00 -5°C° 0.3 mm 15 mps 749 mmHg 70%
    16:00 -5°C° 0.3 mm 15 mps 749 mmHg 72%
    17:00 -5°C° 0.3 mm 16 mps 749 mmHg 74%
    18:00 -5°C° 0.3 mm 16 mps 749 mmHg 72%
    19:00 -7°C° 0.3 mm 16 mps 749 mmHg 71%
    20:00 -7°C° 0.3 mm 16 mps 750 mmHg 69%
    21:00 -7°C° 0.3 mm 16 mps 750 mmHg 70%
    22:00 -7°C° 0.3 mm 16 mps 750 mmHg 71%
    23:00 -7°C° 0.3 mm 16 mps 750 mmHg 71%

    Day after tomorrow, 28 March, Thursday

    Time Temperature Precipitation Wind Pressure Humidity
    00:00 -7°C° 0.4 mm 16 mps 750 mmHg 73%
    01:00 -7°C° 0.4 mm 15 mps 750 mmHg 74%
    02:00 -7°C° 0.4 mm 15 mps 749 mmHg 75%
    03:00 -6°C° 0.2 mm 14 mps 749 mmHg 73%
    04:00 -5°C° 0.2 mm 13 mps 748 mmHg 71%
    05:00 -5°C° 0.2 mm 13 mps 748 mmHg 68%
    06:00 -5°C° 0.2 mm 12 mps 748 mmHg 68%
    07:00 -4°C° 0.2 mm 11 mps 747 mmHg 68%
    08:00 -4°C° 0.2 mm 11 mps 747 mmHg 68%
    09:00 -4°C° 0.2 mm 10 mps 746 mmHg 70%
    10:00 -4°C° 0.2 mm 9 mps 746 mmHg 72%
    11:00 -4°C° 0.2 mm 8 mps 746 mmHg 74%
    12:00 -4°C° 0.5 mm 9 mps 745 mmHg 75%
    13:00 -4°C° 0.5 mm 10 mps 745 mmHg 75%
    14:00 -4°C° 0.5 mm 11 mps 745 mmHg 75%
    15:00 -4°C° 0.3 mm 11 mps 745 mmHg 71%
    16:00 -6°C° 0.3 mm 11 mps 745 mmHg 67%
    17:00 -6°C° 0.3 mm 11 mps 744 mmHg 63%
    18:00 -5°C° 0.4 mm 10 mps 745 mmHg 64%
    19:00 -5°C° 0.4 mm 10 mps 745 mmHg 65%
    20:00 -5°C° 0.4 mm 10 mps 745 mmHg 66%
    21:00 -5°C° 0.3 mm 10 mps 745 mmHg 66%
    22:00 -5°C° 0.3 mm 9 mps 745 mmHg 67%
    23:00 -4°C° 0.3 mm 9 mps 745 mmHg 67%

    29 March, Friday

    Time Temperature Precipitation Wind Pressure Humidity
    00:00 -4°C° 0.1 mm 7 mps 745 mmHg 69%
    01:00 -4°C° 0.1 mm 6 mps 746 mmHg 72%
    02:00 -3°C° 0.1 mm 4 mps 746 mmHg 74%
    03:00 -4°C° 0.3 mm 3 mps 746 mmHg 78%
    04:00 -4°C° 0.3 mm 3 mps 747 mmHg 81%
    05:00 -3°C° 0.3 mm 2 mps 748 mmHg 84%
    06:00 -3°C° 0.2 mm 2 mps 749 mmHg 82%
    07:00 -2°C° 0.2 mm 2 mps 749 mmHg 80%
    08:00 -2°C° 0.2 mm 2 mps 750 mmHg 78%
    09:00 -1°C° 0.1 mm 2 mps 751 mmHg 76%
    10:00 -1°C° 0.1 mm 2 mps 752 mmHg 74%
    11:00 -1°C° 0.1 mm 2 mps 753 mmHg 72%
    12:00 -1°C° 0.1 mm 3 mps 754 mmHg 72%
    13:00 -2°C° 0.1 mm 5 mps 755 mmHg 72%
    14:00 -3°C° 0.1 mm 7 mps 756 mmHg 73%
    15:00 -4°C° 0 mm 7 mps 757 mmHg 71%
    16:00 -6°C° 0 mm 7 mps 758 mmHg 69%
    17:00 -7°C° 0 mm 7 mps 760 mmHg 67%
    18:00 -8°C° 0 mm 6 mps 761 mmHg 69%
    19:00 -9°C° 0 mm 6 mps 762 mmHg 71%
    20:00 -10°C° 0 mm 5 mps 764 mmHg 73%
    21:00 -9°C° 0 mm 4 mps 765 mmHg 73%
    22:00 -9°C° 0 mm 4 mps 766 mmHg 73%
    23:00 -8°C° 0 mm 3 mps 767 mmHg 73%

    30 March, Saturday

    Time Temperature Precipitation Wind Pressure Humidity
    00:00 -8°C° 0 mm 3 mps 768 mmHg 73%
    01:00 -8°C° 0 mm 2 mps 768 mmHg 73%
    02:00 -8°C° 0 mm 2 mps 769 mmHg 73%
    03:00 -8°C° 0 mm 2 mps 769 mmHg 73%
    04:00 -9°C° 0 mm 3 mps 769 mmHg 72%
    05:00 -10°C° 0 mm 4 mps 770 mmHg 72%
    06:00 -10°C° 0 mm 4 mps 770 mmHg 70%
    07:00 -10°C° 0 mm 5 mps 770 mmHg 68%
    08:00 -10°C° 0 mm 5 mps 770 mmHg 67%
    09:00 -9°C° 0 mm 6 mps 770 mmHg 66%
    10:00 -8°C° 0 mm 7 mps 770 mmHg 65%
    11:00 -7°C° 0 mm 7 mps 769 mmHg 65%
    12:00 -4°C° 0.1 mm 7 mps 769 mmHg 69%
    13:00 -3°C° 0.1 mm 7 mps 768 mmHg 73%
    14:00 -1°C° 0.1 mm 7 mps 768 mmHg 77%
    15:00 -1°C° 0.7 mm 7 mps 767 mmHg 81%
    16:00 0°C° 0.7 mm 7 mps 766 mmHg 85%
    17:00 0°C° 0.7 mm 8 mps 765 mmHg 89%
    18:00 0°C° 0.7 mm 8 mps 765 mmHg 88%
    19:00 +1°C° 0.7 mm 9 mps 764 mmHg 87%
    20:00 +1°C° 0.7 mm 10 mps 763 mmHg 86%
    21:00 +1°C° 0.5 mm 10 mps 763 mmHg 86%
    22:00 +1°C° 0.5 mm 9 mps 762 mmHg 85%
    23:00 +1°C° 0.5 mm 9 mps 761 mmHg 85%

    31 March, Sunday

    Time Temperature Precipitation Wind Pressure Humidity
    00:00 +1°C° 0.7 mm 10 mps 761 mmHg 85%
    01:00 +1°C° 0.7 mm 10 mps 760 mmHg 85%
    02:00 +1°C° 0.7 mm 10 mps 759 mmHg 86%
    03:00 +1°C° 0.5 mm 10 mps 759 mmHg 83%
    04:00 +1°C° 0.5 mm 10 mps 758 mmHg 81%
    05:00 +1°C° 0.5 mm 10 mps 758 mmHg 79%
    06:00 0°C° 0.3 mm 10 mps 758 mmHg 78%
    07:00 0°C° 0.3 mm 10 mps 757 mmHg 77%
    08:00 -1°C° 0.3 mm 11 mps 757 mmHg 76%
    09:00 -2°C° 0.1 mm 10 mps 757 mmHg 77%
    10:00 -1°C° 0.1 mm 9 mps 757 mmHg 78%
    11:00 -1°C° 0.1 mm 8 mps 756 mmHg 78%
    12:00 -1°C° 0.2 mm 9 mps 756 mmHg 79%
    13:00 -3°C° 0.2 mm 9 mps 755 mmHg 79%
    14:00 -3°C° 0.2 mm 10 mps 754 mmHg 79%
    15:00 -3°C° 0.2 mm 10 mps 754 mmHg 77%
    16:00 -3°C° 0.2 mm 10 mps 754 mmHg 76%
    17:00 -4°C° 0.2 mm 10 mps 754 mmHg 74%
    18:00 -4°C° 0.2 mm 10 mps 753 mmHg 73%
    19:00 -4°C° 0.2 mm 9 mps 753 mmHg 71%
    20:00 -5°C° 0.2 mm 8 mps 753 mmHg 69%
    21:00 -5°C° 0.3 mm 8 mps 753 mmHg 70%
    22:00 -5°C° 0.3 mm 8 mps 752 mmHg 70%
    23:00 -4°C° 0.3 mm 7 mps 752 mmHg 71%
    Show more